Tiempo atmosférico en la estación meteorológica de Jávea/ Xàbia, Alacant/Alicante (15 m.)



Fecha
DESCASC
Temp. máxima en grados centígrados (hora)
DESCASC
Temp. mínima en grados centígrados (hora)
DESCASC
Temp. media en grados centígrados
DESCASC
Racha de viento máxima en m/sg (hora)
DESCASC
Velocidad máxima media en intervalos de 10 minutos(hora)
DESCASC
Precipitaciones diarias en mm
DESCASC
Precipitaciones de 00:00 a 06:00 en mm
DESCASC
Precipitaciones de 06:00 a 12:00 en mm
DESCASC
Precipitaciones de 12:00 a 18:00 en mm
DESCASC
Precipitaciones de 18:00 a 24:00 en mm
DESCASC
22-11-2020 18.7 (13:10) 7.1 (07:10) 12.9 6.94 (10:10) 4.17 (10:10) 0 0 0 0 0
21-11-2020 19.5 (14:10) 7.3 (03:20) 13.4 7.22 (11:50) 4.72 (11:50) 0 0 0 0 0
20-11-2020 20 (13:50) 7.6 (23:59) 13.8 8.33 (13:10) 4.72 (13:10) 0 0 0 0 0
19-11-2020 21.3 (15:50) 11 (00:00) 16.1 7.78 (12:20) 5 (12:10) 0 0 0 0 0
18-11-2020 21.9 (13:20) 12.7 (00:00) 17.3 3.89 (12:30) 2.22 (01:30) 0 0 0 0 0
17-11-2020 22.6 (15:10) 14.5 (00:00) 18.6 7.78 (15:10) 3.89 (15:20) 0 0 0 0 0
16-11-2020 25.3 (10:40) 15.7 (00:00) 20.5 12.22 (11:50) 8.33 (12:50) 0 0 0 0 0
15-11-2020 26.3 (12:50) 12.7 (00:00) 19.5 5.56 (12:10) 3.33 (12:10) 0 0 0 0 0
14-11-2020 20.9 (12:00) 13.9 (00:00) 17.4 5.83 (00:10) 3.06 (00:10) 0 0 0 0 0
13-11-2020 20.3 (12:40) 14.6 (00:00) 17.4 10.83 (10:40) 6.39 (10:00) 0 0 0 0 0
12-11-2020 21.3 (12:00) 9.5 (00:00) 15.4 5 (13:10) 3.06 (13:30) 0.2 0.2 0 0 0
11-11-2020 21.2 (13:00) 11 (00:00) 16.1 5.83 (09:20) 3.33 (11:00) 0 0 0 0 0
10-11-2020 22.3 (14:00) 12.2 (00:00) 17.2 7.5 (11:30) 5 (11:50) 0 0 0 0 0
09-11-2020 22.5 (16:10) 9.8 (00:00) 16.2 3.89 (13:50) 2.78 (23:50) 0.2 0.2 0 0 0
08-11-2020 22.3 (11:20) 9.5 (00:00) 15.9 5 (14:10) 3.61 (14:20) 0 0 0 0 0
07-11-2020 23.9 (14:50) 13.3 (00:00) 18.6 10.56 (13:10) 6.39 (15:00) 14.8 2.8 12 0 0
06-11-2020 23.6 (15:50) 18.1 (00:00) 20.9 7.78 (23:20) 4.17 (11:40) 0 0 0 0 0
05-11-2020 -- (--) -- (--) -- -- (--) -- (--) -- -- -- 0 0
04-11-2020 18.8 (00:10) 14.3 (00:00) 16.5 12.22 (12:30) 6.39 (12:30) -- 1 0 9.2 --
03-11-2020 23 (13:50) 12.4 (00:00) 17.7 10.28 (13:00) 6.11 (12:50) 0 0 0 0 0
02-11-2020 24.6 (13:40) 10.1 (00:00) 17.4 7.78 (16:30) 5 (17:00) 0.2 0.2 0 0 0
01-11-2020 25.4 (14:00) 10.1 (00:00) 17.8 6.94 (17:40) 3.61 (20:20) 0 0 0 0 0
31-10-2020 25.1 (13:50) 9.8 (00:00) 17.5 7.78 (15:50) 4.17 (14:50) 0 0 0 0 0
30-10-2020 26.8 (15:20) 10.1 (00:00) 18.4 5.28 (17:30) 3.06 (03:50) 0 0 0 0 0
29-10-2020 23.8 (11:50) 11.1 (00:00) 17.4 6.39 (10:40) 3.89 (12:10) 0 0 0 0 0
28-10-2020 24.5 (11:20) 9.5 (00:00) 17 6.11 (11:40) 3.61 (15:50) 0 0 0 0 0
27-10-2020 24.2 (14:00) 9.9 (00:00) 17.1 11.11 (11:20) 6.39 (00:10) 0 0 0 0 0
26-10-2020 22.8 (14:50) 13.8 (00:00) 18.3 19.17 (10:00) 11.11 (10:00) 0 0 0 0 0

Gráficas

Temp. máximas Temp. mínimas Temp. medias Precipitaciones Rachas de viento máximas Velocidades máximas media en intervalos de 10 minutos

Datos horarios

Fecha y hora oficial Temperatura (ºC) Velocidad del viento (km/h) Dirección del viento Racha (km/h) Dirección de racha Precipitación (mm) Presión (hPa) Tendencia (hPa) Humedad (%)
2020-11-24 23:00:00 13.2 9 Oeste 21 Sudoeste 0 1019.1 -0.3 74
2020-11-24 22:00:00 13.8 10 Sudoeste 19 Oeste 0 1019.2 -0.4 73
2020-11-24 21:00:00 13.3 5 Sudoeste 14 Sudoeste 0 1019.2 -0.4 77
2020-11-24 20:00:00 13.4 4 Oeste 14 Oeste 0 1019.4 -0.2 77
2020-11-24 19:00:00 14.2 6 Oeste 28 Sudoeste 0 1019.6 -0.1 72
2020-11-24 18:00:00 15.1 9 Sudoeste 30 Sudoeste 0 1019.6 -- 68
2020-11-24 17:00:00 16.3 13 Sudoeste 32 Sudoeste 0 1019.6 -- 61
2020-11-24 16:00:00 17.7 14 Sudoeste 32 Sur 0 1019.7 -- 55
2020-11-24 15:00:00 18.6 19 Sur 32 Sur 0 1020.3 -- 52
2020-11-24 14:00:00 19 15 Sur 31 Sudoeste 0 1021.1 -- 50
2020-11-24 13:00:00 19 17 Sur 38 Sudoeste 0 1022 -- 49
2020-11-24 12:00:00 18.3 18 Sur 30 Sudoeste 0 1023.1 -- 52
2020-11-24 11:00:00 17.2 10 Sudoeste 20 Sur 0 1023.7 -- 58
2020-11-24 10:00:00 12.4 6 Sudoeste 13 Oeste 0 1023.7 -- 78
2020-11-24 09:00:00 7.5 9 Sudoeste 12 Oeste 0 1023.8 -- 93
2020-11-24 08:00:00 5.8 8 Sudoeste 15 Oeste 0 1023.8 -- 93
2020-11-24 07:00:00 5.7 9 Sudoeste 13 Sudoeste 0 1023.8 -- 92
2020-11-24 06:00:00 6.3 9 Oeste 13 Sudoeste 0 1023.9 -- 92
2020-11-24 05:00:00 6.1 10 Oeste 14 Sudoeste 0 1024 -- 93
2020-11-24 04:00:00 6.5 9 Sudoeste 13 Sudoeste 0 1024.3 -- 93
2020-11-24 03:00:00 6.2 9 Sudoeste 13 Sudoeste 0 1024.6 -- 93
2020-11-24 02:00:00 6.6 9 Sudoeste 16 Sudoeste 0 1025.1 -- 92
2020-11-24 01:00:00 6.7 9 Sudoeste 14 Sudoeste 0 1025.6 -- 91
2020-11-24 00:00:00 7.5 6 Sudoeste 14 Sudoeste 0 1025.9 -- 89
2020-11-23 23:00:00 8.2 5 Oeste 8 Sudoeste 0 1026.1 -- 89
2020-11-23 22:00:00 9.1 4 Oeste 8 Oeste 0 1026.4 -- 86
2020-11-23 21:00:00 10.6 6 Oeste 12 Oeste 0 1026.4 -- 81
2020-11-23 20:00:00 10 7 Oeste 9 Oeste 0 1026.3 -- 82
2020-11-23 19:00:00 11.3 5 Oeste 8 Oeste 0 1026.2 -- 78
2020-11-23 18:00:00 14.1 2 Sudoeste 9 Sur 0 1026 -- 66
2020-11-23 17:00:00 17.8 5 Sur 15 Sur 0 1025.8 -- 55
2020-11-23 16:00:00 18.9 6 Sudeste 16 Nordeste 0 1025.7 -- 49
2020-11-23 15:00:00 17.8 8 Este 16 Este 0 1025.9 -- 58
2020-11-23 14:00:00 17.8 8 Nordeste 15 Este 0 1026.5 -- 53
2020-11-23 13:00:00 17.6 9 Nordeste 15 Nordeste 0 1027.2 -- 55
2020-11-23 12:00:00 18.5 6 Norte 12 Norte 0 1027.9 -- 53
2020-11-23 11:00:00 16.7 7 Oeste 14 Sudoeste 0 1028.2 -- 60
2020-11-23 10:00:00 13.7 7 Oeste 19 Oeste 0 1028.2 -- 69
2020-11-23 09:00:00 9.8 11 Oeste 18 Oeste 0 1027.9 -- 85
2020-11-23 08:00:00 6.7 7 Sudoeste 13 Sudoeste 0 1027.6 -- 88
2020-11-23 07:00:00 7 9 Oeste 14 Sudoeste 0 1027.2 -- 87
2020-11-23 06:00:00 7 8 Sudoeste 14 Oeste 0 1026.9 -- 87
2020-11-23 05:00:00 6.8 10 Sudoeste 13 Sudoeste 0 1026.8 -- 86
2020-11-23 04:00:00 7.3 11 Oeste 15 Oeste 0 1026.9 -- 86
2020-11-23 03:00:00 7.7 9 Oeste 14 Oeste 0 1027 -- 86
2020-11-23 02:00:00 7.9 10 Oeste 14 Oeste 0 1026.9 -- 88
2020-11-23 01:00:00 7.5 10 Oeste 13 Oeste 0 1027.2 -- 90
2020-11-23 00:00:00 7.7 10 Oeste 13 Oeste 0 1027.3 -- 91
2020-11-22 23:00:00 7.7 9 Sudoeste 13 Oeste 0 1027.2 -- 90
2020-11-22 22:00:00 8.2 9 Sudoeste 12 Sudoeste 0 1027.2 -- 90
2020-11-22 21:00:00 8.7 9 Sudoeste 12 Sudoeste 0 1027.1 -- 89
2020-11-22 20:00:00 9.6 6 Oeste 9 Oeste 0 1026.8 -- 86
2020-11-22 19:00:00 11 5 Oeste 7 Oeste 0 1026.5 -- 79
2020-11-22 18:00:00 13.6 5 Sudoeste 7 Sudeste 0 1026.1 -- 68
2020-11-22 17:00:00 16.6 4 Este 14 Este 0 1025.8 -- 58
2020-11-22 16:00:00 17.9 6 Este 18 Este 0 1025.7 -- 52
2020-11-22 15:00:00 17.5 9 Este 19 Nordeste 0 1025.8 -- 53
2020-11-22 14:00:00 17.8 11 Norte 23 Nordeste 0 1026.2 -- 49
2020-11-22 13:00:00 18.5 10 Norte 19 Norte 0 1026.9 -- 49
2020-11-22 12:00:00 18 9 Noroeste 22 Noroeste 0 1027.8 -- 52
2020-11-22 11:00:00 16.4 14 Noroeste 25 Norte 0 1028.2 -- 58
2020-11-22 10:00:00 14.9 15 Noroeste 25 Noroeste 0 1028.1 -- 64
2020-11-22 09:00:00 11.1 8 Oeste 17 Oeste 0 1027.8 -- 82
2020-11-22 08:00:00 7.9 10 Oeste 14 Oeste 0 1027.6 -- 90
2020-11-22 07:00:00 7.2 8 Sudoeste 14 Oeste 0 1027.4 -- 89
2020-11-22 06:00:00 7.8 9 Oeste 13 Oeste 0 1027.4 -- 88
2020-11-22 05:00:00 8.3 8 Sudoeste 12 Oeste 0 1027.3 -- 88
2020-11-22 04:00:00 8.3 9 Sudoeste 13 Sudoeste 0 1027.2 -- 87
2020-11-22 03:00:00 9.6 8 Oeste 12 Oeste 0 1027.3 -- 87
2020-11-22 02:00:00 10.1 9 Oeste 12 Oeste 0 1027.5 -- 86
2020-11-22 01:00:00 10.7 8 Sudoeste 13 Oeste 0 1028.1 -- 83
2020-11-22 00:00:00 10.3 7 Sudoeste 10 Sudoeste 0 1028.4 -- 85
2020-11-21 23:00:00 11.5 4 Oeste 12 Oeste 0 1028.8 -- 81
2020-11-21 22:00:00 11.2 5 Oeste 9 Sur 0 1028.6 -- 82
2020-11-21 21:00:00 14.1 4 Nordeste 13 Norte 0 1028.2 -- 67
2020-11-21 20:00:00 15.1 5 Nordeste 19 Nordeste 0 1028 -- 63
2020-11-21 19:00:00 15.6 9 Nordeste 22 Nordeste 0 1027.8 -- 62
2020-11-21 18:00:00 15.6 8 Norte 18 Norte 0 1027.4 -- 62
2020-11-21 17:00:00 17.6 7 Norte 21 Norte 0 1027 -- 48
2020-11-21 16:00:00 18.6 12 Norte 26 Noroeste 0 1027 -- 51
2020-11-21 15:00:00 19.2 14 Norte 24 Norte 0 1027.1 -- 54
2020-11-21 14:00:00 19.3 12 Norte 24 Noroeste 0 1027.3 -- 52
2020-11-21 13:00:00 19.2 14 Noroeste 25 Noroeste 0 1027.6 -- 53
2020-11-21 12:00:00 18.4 16 Norte 26 Norte 0 1028 -- 53
2020-11-21 11:00:00 17.6 12 Noroeste 24 Norte 0 1028.1 -- 57
2020-11-21 10:00:00 15.2 4 Oeste 15 Sudoeste 0 1027.8 -- 65
2020-11-21 09:00:00 9.7 8 Oeste 13 Oeste 0 1027.6 -- 84
2020-11-21 08:00:00 8.8 9 Sudoeste 15 Sudoeste 0 1026.9 -- 80
2020-11-21 07:00:00 9 9 Oeste 16 Oeste 0 1026.2 -- 80
2020-11-21 06:00:00 8.4 10 Oeste 18 Oeste 0 1026.1 -- 83
2020-11-21 05:00:00 7.6 6 Sudoeste 12 Oeste 0 1026.2 -- 83
2020-11-21 04:00:00 7.8 10 Sudoeste 13 Oeste 0 1025.9 -- 83
2020-11-21 03:00:00 7.7 10 Sudoeste 14 Oeste 0 1026 -- 82
2020-11-21 02:00:00 7.5 10 Sudoeste 14 Oeste 0 1026.4 -- 85
2020-11-21 01:00:00 7.6 10 Sudoeste 14 Sudoeste 0 1026.5 -- 85
2020-11-21 00:00:00 7.6 11 Sudoeste 13 Sudoeste 0 1026.3 -- 85
2020-11-20 23:00:00 8.1 10 Sudoeste 14 Sudoeste 0 1026.4 -- 84
2020-11-20 22:00:00 9 9 Sudoeste 13 Sudoeste 0 1026.2 -- 82
2020-11-20 21:00:00 9.3 9 Sudoeste 13 Oeste 0 1026.1 -- 81
2020-11-20 20:00:00 10.3 9 Oeste 12 Sudoeste 0 1025.8 -- 79
2020-11-20 19:00:00 12.3 4 Noroeste 8 Noroeste 0 1025.4 -- 66
2020-11-20 18:00:00 14.7 2 Noroeste 14 Norte 0 1025.3 -- 58
2020-11-20 17:00:00 17.2 9 Norte 19 Norte 0 1025.3 -- 49
2020-11-20 16:00:00 18.5 11 Nordeste 22 Nordeste 0 1025.5 -- 47
2020-11-20 15:00:00 19.1 11 Norte 23 Nordeste 0 1025.4 -- 42
2020-11-20 14:00:00 19.4 16 Nordeste 30 Nordeste 0 1026.2 -- 52
2020-11-20 13:00:00 19.8 14 Norte 25 Nordeste 0 1027 -- 52
2020-11-20 12:00:00 17.2 12 Nordeste 23 Nordeste 0 1027.9 -- 60
2020-11-20 11:00:00 16.5 13 Nordeste 27 Norte 0 1027.7 -- 68
2020-11-20 10:00:00 13.2 3 Oeste 10 Sudoeste 0 1027.3 -- 89
2020-11-20 09:00:00 12.4 7 Sudoeste 16 Oeste 0 1026.6 -- 87
2020-11-20 08:00:00 12.4 9 Oeste 17 Oeste 0 1026.4 -- 91
2020-11-20 07:00:00 9.8 7 Sudoeste 12 Sudoeste 0 1026.4 -- 91
2020-11-20 06:00:00 9.6 8 Oeste 14 Sudoeste 0 1026.4 -- 90
2020-11-20 05:00:00 9.3 6 Sudoeste 11 Sudoeste 0 1026.5 -- 90
2020-11-20 04:00:00 9.5 9 Sudoeste 12 Sudoeste 0 1026.4 -- 90
2020-11-20 03:00:00 9.6 7 Sudoeste 10 Sudoeste 0 1026.9 -- 90
2020-11-20 02:00:00 9.8 5 Sudoeste 12 Oeste 0 1027.5 -- 88
2020-11-20 01:00:00 10.8 10 Oeste 13 Oeste 0 1027.6 -- 87
2020-11-20 00:00:00 11 9 Sudoeste 12 Sudoeste 0 1028.1 -- 90
2020-11-19 23:00:00 11.5 6 Oeste 11 Oeste 0 1028.6 -- 91
2020-11-19 22:00:00 11.9 9 Sudoeste 12 Sudoeste 0 1028.9 -- 91
2020-11-19 21:00:00 12.8 5 Sudoeste 10 Oeste 0 1028.7 -- 89
2020-11-19 20:00:00 13.7 6 Oeste 12 Oeste 0 1028.3 -- 89
2020-11-19 19:00:00 14.4 3 Oeste 6 Oeste 0 1028.1 -- 82
2020-11-19 18:00:00 17 2 Sudeste 7 Sudeste 0 1027.4 -- 72
2020-11-19 17:00:00 20.6 3 Sudeste 19 Norte 0 1027.2 -- 63
2020-11-19 16:00:00 21.1 10 Norte 22 Noroeste 0 1027.8 -- 59
2020-11-19 15:00:00 20.6 12 Norte 26 Noroeste 0 1028 -- 62
2020-11-19 14:00:00 20.3 14 Noroeste 27 Norte 0 1028.3 -- 65
2020-11-19 13:00:00 19.2 13 Noroeste 28 Norte 0 1029.4 -- 72
2020-11-19 12:00:00 17.8 17 Noroeste 26 Noroeste 0 1029.7 -- 78
2020-11-19 11:00:00 17.5 14 Noroeste 22 Noroeste 0 1029.5 -- 79
2020-11-19 10:00:00 17.5 14 Noroeste 24 Norte 0 1029.2 -- 81
2020-11-19 09:00:00 16.8 10 Noroeste 19 Noroeste 0 1028.7 -- 83
2020-11-19 08:00:00 16.6 9 Noroeste 23 Noroeste 0 1027.9 -- 86
2020-11-19 07:00:00 16.6 14 Noroeste 24 Noroeste 0 1027.2 -- 87
2020-11-19 06:00:00 16.3 8 Noroeste 17 Noroeste 0 1026.9 -- 91
2020-11-19 05:00:00 15.7 6 Oeste 15 Noroeste 0 1026.7 -- 94
2020-11-19 04:00:00 14.5 6 Sudoeste 13 Sudoeste 0 1026.8 -- 95
2020-11-19 03:00:00 14.1 10 Sudoeste 14 Sudoeste 0 1026.8 -- 95
2020-11-19 02:00:00 12.8 9 Sudoeste 12 Sudoeste 0 1026.9 -- 95
2020-11-19 01:00:00 12.8 8 Sudoeste 11 Sudoeste 0 1026.9 -- 95
2020-11-19 00:00:00 12.8 6 Oeste 11 Oeste 0 1026.8 -- 94
2020-11-18 23:00:00 13.4 7 Oeste 9 Oeste 0 1026.9 -- 94
2020-11-18 22:00:00 14 7 Oeste 9 Oeste 0 1026.5 -- 93
2020-11-18 21:00:00 14.9 6 Sudoeste 9 Sudoeste 0 1026.1 -- 92
2020-11-18 20:00:00 15 4 Oeste 7 Sudoeste 0 1026.1 -- 88
2020-11-18 19:00:00 16.5 2 Oeste 5 Sur 0 1025.9 -- 84
2020-11-18 18:00:00 18.1 3 Sur 7 Sudeste 0 1025.5 -- 81
2020-11-18 17:00:00 18.6 4 Este 9 Este 0 1025.3 -- 79
2020-11-18 16:00:00 19 6 Este 10 Este 0 1025.3 -- 74
2020-11-18 15:00:00 20.2 6 Nordeste 13 Nordeste 0 1025.4 -- 68
2020-11-18 14:00:00 20.9 5 Este 14 Este 0 1025.8 -- 66
2020-11-18 13:00:00 21.5 6 Este 14 Este 0 1026.3 -- 64
2020-11-18 12:00:00 21.3 2 Nordeste 8 Este 0 1026.9 -- 67
2020-11-18 11:00:00 18.5 5 Oeste 11 Sudoeste 0 1027.2 -- 80
2020-11-18 10:00:00 17.1 8 Oeste 14 Oeste 0 1027.1 -- 85
2020-11-18 09:00:00 15.7 5 Oeste 10 Oeste 0 1026.8 -- 92
2020-11-18 08:00:00 15.1 4 Sudoeste 10 Oeste 0 1026.2 -- 93
2020-11-18 07:00:00 14.6 6 Sudoeste 11 Oeste 0 1026 -- 94
2020-11-18 06:00:00 14.2 6 Sudoeste 10 Oeste 0 1025.8 -- 95
2020-11-18 05:00:00 13.6 3 Sudoeste 10 Sudoeste 0 1025.4 -- 94
2020-11-18 04:00:00 13.8 8 Sudoeste 10 Sudoeste 0 1025.6 -- 93
2020-11-18 03:00:00 14.9 5 Sudoeste 12 Sudoeste 0 1025.9 -- 93
2020-11-18 02:00:00 15.4 5 Oeste 14 Oeste 0 1025.8 -- 92
2020-11-18 01:00:00 15.8 6 Oeste 9 Oeste 0 1026.1 -- 93
2020-11-18 00:00:00 15.9 5 Sudoeste 7 Sudoeste 0 1026.2 -- 94
2020-11-17 23:00:00 15.5 3 Oeste 8 Sudoeste 0 1026.4 -- 93
2020-11-17 22:00:00 15.6 4 Oeste 9 Sudoeste 0 1026 -- 90
2020-11-17 21:00:00 17.1 5 Oeste 10 Oeste 0 1025.5 -- 89
2020-11-17 20:00:00 17.3 5 Oeste 10 Oeste 0 1025.4 -- 88
2020-11-17 19:00:00 17.6 4 Sudoeste 12 Oeste 0 1025 -- 85
2020-11-17 18:00:00 18.5 5 Sudoeste 16 Sudoeste 0 1024.7 -- 80
2020-11-17 17:00:00 20.3 12 Sur 24 Sur 0 1024.7 -- 68
2020-11-17 16:00:00 22.1 10 Sur 28 Sudoeste 0 1024.4 -- 60
2020-11-17 15:00:00 22.1 12 Sur 24 Sur 0 1024.3 -- 62
2020-11-17 14:00:00 20.7 10 Sur 21 Sudeste 0 1024.8 -- 69
2020-11-17 13:00:00 19.7 9 Nordeste 17 Nordeste 0 1025.3 -- 74
2020-11-17 12:00:00 20.9 6 Nordeste 13 Nordeste 0 1025.9 -- 68
2020-11-17 11:00:00 19.9 0 Calma 8 Sudoeste 0 1026.1 -- 71
2020-11-17 10:00:00 17.6 7 Sudoeste 12 Oeste 0 1026 -- 78
2020-11-17 09:00:00 14.8 5 Sudoeste 9 Sudoeste 0 1025.6 -- 87
2020-11-17 08:00:00 14.6 5 Oeste 9 Oeste 0 1025 -- 87
2020-11-17 07:00:00 14.9 5 Sudoeste 9 Oeste 0 1024.4 -- 86
2020-11-17 06:00:00 15.2 5 Oeste 10 Oeste 0 1024.2 -- 86
2020-11-17 05:00:00 15.9 5 Sudoeste 10 Oeste 0 1024.1 -- 83
2020-11-17 04:00:00 16 5 Sudoeste 12 Oeste 0 1024 -- 84
2020-11-17 03:00:00 16 7 Sudoeste 10 Oeste 0 1024 -- 85
2020-11-17 02:00:00 16.7 6 Oeste 14 Oeste 0 1024.2 -- 85
2020-11-17 01:00:00 16.7 7 Sudoeste 12 Sudoeste 0 1024.5 -- 86
2020-11-17 00:00:00 16.5 5 Sudoeste 9 Sudoeste 0 1024.3 -- 85
2020-11-16 23:00:00 16.4 4 Oeste 9 Sudoeste 0 1024.4 -- 84
2020-11-16 22:00:00 17.2 5 Sudoeste 12 Norte 0 1024 -- 80
2020-11-16 21:00:00 18.6 9 Noroeste 18 Noroeste 0 1023.6 -- 74
2020-11-16 20:00:00 19.3 10 Norte 21 Noroeste 0 1023.3 -- 71
2020-11-16 19:00:00 19.5 8 Norte 18 Norte 0 1022.5 -- 69
2020-11-16 18:00:00 19.5 6 Norte 16 Norte 0 1022 -- 71
2020-11-16 17:00:00 20.9 6 Nordeste 15 Norte 0 1021.5 -- 65
2020-11-16 16:00:00 21.6 10 Nordeste 28 Norte 0 1020.8 -- 61
2020-11-16 15:00:00 22.4 13 Norte 31 Norte 0 1020.9 -- 58
2020-11-16 14:00:00 23 15 Nordeste 33 Norte 0 1020.7 -- 57
2020-11-16 13:00:00 23.3 22 Norte 44 Norte 0 1020.3 -- 56
2020-11-16 12:00:00 24.9 22 Norte 44 Noroeste 0 1020.6 -- 46
2020-11-16 11:00:00 25 21 Noroeste 38 Noroeste 0 1020.1 -- 45
2020-11-16 10:00:00 24 18 Noroeste 31 Oeste 0 1019.5 -- 47
2020-11-16 09:00:00 19 9 Oeste 15 Oeste 0 1018.7 -- 67
2020-11-16 08:00:00 16.8 10 Oeste 15 Oeste 0 1018.3 -- 74
2020-11-16 07:00:00 15.8 9 Sudoeste 14 Sudoeste 0 1018.4 -- 79
2020-11-16 06:00:00 17 9 Sudoeste 12 Oeste 0 1017.9 -- 74
2020-11-16 05:00:00 16.1 6 Oeste 10 Oeste 0 1018.2 -- 79
2020-11-16 04:00:00 17.3 6 Oeste 13 Oeste 0 1018.2 -- 70
2020-11-16 03:00:00 16.8 8 Oeste 17 Oeste 0 1018.5 -- 72
2020-11-16 02:00:00 16.9 10 Oeste 14 Sudoeste 0 1018.8 -- 72
2020-11-16 01:00:00 16.7 9 Oeste 13 Oeste 0 1019 -- 74
2020-11-16 00:00:00 17.1 8 Oeste 13 Oeste 0 1019.1 -- 72
2020-11-15 23:00:00 17.4 7 Oeste 15 Oeste 0 1019.6 -- 72
2020-11-15 22:00:00 17.1 9 Oeste 15 Oeste 0 1019.9 -- 76
2020-11-15 21:00:00 18 7 Oeste 14 Oeste 0 1020 -- 73
2020-11-15 20:00:00 17.8 7 Oeste 12 Oeste 0 1020 -- 75
2020-11-15 19:00:00 17.8 6 Sudoeste 11 Sudoeste 0 1019.7 -- 75
2020-11-15 18:00:00 20.8 4 Oeste 16 Sudoeste 0 1019.1 -- 62
2020-11-15 17:00:00 23.4 8 Sudoeste 18 Sudoeste 0 1018.6 -- 52
2020-11-15 16:00:00 26.3 4 Oeste 13 Sudoeste 0 1018.4 -- 36
2020-11-15 15:00:00 24.3 8 Nordeste 14 Nordeste 0 1018.8 -- 39
2020-11-15 14:00:00 24.8 9 Este 17 Nordeste 0 1018.6 -- 41
2020-11-15 13:00:00 26 6 Noroeste 20 Noroeste 0 1019.2 -- 34
2020-11-15 12:00:00 25.1 10 Oeste 19 Noroeste 0 1019.8 -- 37
2020-11-15 11:00:00 22.9 8 Sudoeste 16 Sudoeste 0 1019.7 -- 46
2020-11-15 10:00:00 19.7 5 Sudoeste 13 Oeste 0 1020 -- 63
2020-11-15 09:00:00 15.8 2 Oeste 11 Sudoeste 0 1020.1 -- 88
2020-11-15 08:00:00 12.7 6 Sudoeste 14 Sudoeste 0 1019.6 -- 91
2020-11-15 07:00:00 13.4 6 Oeste 14 Oeste 0 1018.9 -- 93
2020-11-15 06:00:00 13.5 5 Sudoeste 13 Oeste 0 1018.9 -- 90
2020-11-15 05:00:00 14.2 9 Oeste 14 Oeste 0 1018.6 -- 90
2020-11-15 04:00:00 14.9 7 Sudoeste 12 Oeste 0 1019 -- 89
2020-11-15 03:00:00 16.4 7 Oeste 12 Oeste 0 1019.1 -- 87
2020-11-15 02:00:00 16.7 7 Oeste 12 Oeste 0 1019.3 -- 88
2020-11-15 01:00:00 16.8 7 Oeste 15 Oeste 0 1019.6 -- 88
2020-11-15 00:00:00 16.7 7 Oeste 12 Oeste 0 1019.9 -- 91
2020-11-14 23:00:00 16.7 4 Sudoeste 9 Oeste 0 1020.1 -- 92
2020-11-14 22:00:00 16.4 4 Sudoeste 7 Oeste 0 1020 -- 91
2020-11-14 21:00:00 16.8 3 Sudoeste 8 Oeste 0 1019.8 -- 90
2020-11-14 20:00:00 16.5 4 Oeste 8 Oeste 0 1019.8 -- 90
2020-11-14 19:00:00 17 4 Sudoeste 7 Oeste 0 1019.5 -- 87
2020-11-14 18:00:00 17.7 2 Sudoeste 3 Oeste 0 1019.4 -- 84
2020-11-14 17:00:00 18.4 2 Este 8 Este 0 1019.2 -- 80
2020-11-14 16:00:00 18.9 3 Este 7 Este 0 1019.3 -- 75
2020-11-14 15:00:00 19.2 3 Este 9 Nordeste 0 1019.4 -- 73
2020-11-14 14:00:00 19.8 5 Nordeste 9 Nordeste 0 1019.7 -- 71
2020-11-14 13:00:00 19.7 5 Este 10 Este 0 1020.1 -- 70
2020-11-14 12:00:00 20.8 2 Sudeste 8 Sudoeste 0 1020.6 -- 66
2020-11-14 11:00:00 18 6 Sudoeste 8 Oeste 0 1020.9 -- 83
2020-11-14 10:00:00 15.7 5 Sudoeste 8 Sudoeste 0 1021.1 -- 90
2020-11-14 09:00:00 14.8 4 Oeste 11 Oeste 0 1020.8 -- 89
2020-11-14 08:00:00 14.5 5 Oeste 13 Oeste 0 1020.1 -- 87
2020-11-14 07:00:00 14.3 6 Oeste 12 Oeste 0 1019.9 -- 88
2020-11-14 06:00:00 14 5 Sudoeste 15 Oeste 0 1019.5 -- 89
2020-11-14 05:00:00 14.1 8 Oeste 16 Oeste 0 1019.4 -- 90
2020-11-14 04:00:00 14.3 6 Oeste 14 Oeste 0 1019.9 -- 89
2020-11-14 03:00:00 14.7 8 Oeste 14 Oeste 0 1020.1 -- 90
2020-11-14 02:00:00 15.8 8 Oeste 12 Noroeste 0 1020.4 -- 90
2020-11-14 01:00:00 16.1 7 Noroeste 21 Noroeste 0 1020.8 -- 89
2020-11-14 00:00:00 16.7 10 Noroeste 20 Noroeste 0 1020.8 -- 91
2020-11-13 23:00:00 16.3 6 Noroeste 13 Noroeste 0 1020.7 -- 92
2020-11-13 22:00:00 16.4 5 Noroeste 12 Noroeste 0 1020.6 -- 93
2020-11-13 21:00:00 15.1 3 Sudoeste 9 Sudoeste 0 1020.1 -- 90
2020-11-13 20:00:00 16.7 4 Noroeste 13 Noroeste 0 1020 -- 85
2020-11-13 19:00:00 17.5 9 Norte 17 Norte 0 1019.6 -- 85
2020-11-13 18:00:00 18 11 Norte 23 Norte 0 1019.2 -- 82
2020-11-13 17:00:00 18.3 13 Norte 22 Norte 0 1019 -- 80
2020-11-13 16:00:00 18.5 13 Noroeste 25 Norte 0 1019 -- 78
2020-11-13 15:00:00 19.3 12 Noroeste 32 Noroeste 0 1019 -- 71
2020-11-13 14:00:00 19.4 19 Norte 34 Noroeste 0 1019.3 -- 68
2020-11-13 13:00:00 19.7 20 Noroeste 35 Noroeste 0 1019.4 -- 65
2020-11-13 12:00:00 18.7 21 Noroeste 34 Noroeste 0 1020.2 -- 67
2020-11-13 11:00:00 17.4 19 Noroeste 39 Noroeste 0 1020.1 -- 72
2020-11-13 10:00:00 17.7 23 Noroeste 37 Noroeste 0 1020.1 -- 71
2020-11-13 09:00:00 16.7 19 Noroeste 36 Noroeste 0 1019.8 -- 78
2020-11-13 08:00:00 16 22 Noroeste 33 Noroeste 0 1019.3 -- 81
2020-11-13 07:00:00 15.9 18 Noroeste 30 Noroeste 0 1019 -- 84
2020-11-13 06:00:00 15.9 18 Noroeste 36 Noroeste 0 1019.1 -- 86
2020-11-13 05:00:00 15.8 17 Noroeste 27 Noroeste 0 1018.9 -- 91
2020-11-13 04:00:00 15.3 3 Oeste 9 Sudoeste 0 1019.3 -- 92
2020-11-13 03:00:00 15.6 4 Sur 10 Sudoeste 0 1019.6 -- 91
2020-11-13 02:00:00 15.9 6 Oeste 12 Sudoeste 0 1020 -- 92
2020-11-13 01:00:00 15.3 6 Oeste 12 Sudoeste 0 1020.5 -- 93
2020-11-13 00:00:00 14.7 6 Sudoeste 12 Sudoeste 0 1020.4 -- 91
2020-11-12 23:00:00 15 7 Oeste 11 Sudoeste 0 1021 -- 89
2020-11-12 22:00:00 15.5 8 Sudoeste 11 Sudoeste 0 1021 -- 89
2020-11-12 21:00:00 15.6 6 Oeste 11 Oeste 0 1020.7 -- 92
2020-11-12 20:00:00 14.2 8 Sudoeste 10 Oeste 0 1020.8 -- 92
2020-11-12 19:00:00 14.9 3 Sudoeste 6 Sudoeste 0 1020.7 -- 88
2020-11-12 18:00:00 17 5 Norte 10 Nordeste 0 1020.4 -- 84
2020-11-12 17:00:00 18 6 Nordeste 14 Nordeste 0 1020.5 -- 78
2020-11-12 16:00:00 19.5 6 Nordeste 17 Este 0 1020.5 -- 68
2020-11-12 15:00:00 20 8 Nordeste 18 Nordeste 0 1020.7 -- 66
2020-11-12 14:00:00 20.8 8 Este 18 Norte 0 1021 -- 60
2020-11-12 13:00:00 20.7 10 Norte 17 Norte 0 1021.6 -- 61
2020-11-12 12:00:00 21.1 5 Nordeste 9 Este 0 1022.4 -- 61
2020-11-12 11:00:00 18.1 2 Nordeste 8 Oeste 0 1022.8 -- 73
2020-11-12 10:00:00 15 5 Sudoeste 12 Oeste 0 1022.5 -- 79
2020-11-12 09:00:00 12.7 6 Sudoeste 13 Sudoeste 0 1022.3 -- 87
2020-11-12 08:00:00 9.8 10 Sudoeste 13 Sudoeste 0 1022 -- 93
2020-11-12 07:00:00 10 8 Oeste 13 Oeste 0 1021.8 -- 93
2020-11-12 06:00:00 10.1 9 Oeste 12 Oeste 0 1021.6 -- 93
2020-11-12 05:00:00 9.9 7 Sudoeste 10 Sudoeste 0.2 1021.6 -- 93
2020-11-12 04:00:00 10.2 9 Sudoeste 13 Oeste 0 1021.9 -- 91
2020-11-12 03:00:00 10.8 9 Oeste 14 Sudoeste 0 1022.4 -- 92
2020-11-12 02:00:00 10.8 10 Sudoeste 13 Oeste 0 1022.7 -- 93
2020-11-12 01:00:00 10.9 10 Sudoeste 15 Oeste 0 1023.1 -- 93
2020-11-12 00:00:00 12.1 8 Oeste 14 Sudoeste 0 1022.9 -- 94
2020-11-11 23:00:00 12.1 9 Sudoeste 13 Sudoeste 0 1023.3 -- 94
2020-11-11 22:00:00 12.6 5 Oeste 12 Oeste 0 1023.1 -- 93
2020-11-11 21:00:00 13 9 Oeste 12 Oeste 0 1023.3 -- 92
2020-11-11 20:00:00 13.5 8 Oeste 10 Oeste 0 1022.9 -- 91
2020-11-11 19:00:00 14.4 4 Oeste 6 Oeste 0 1022.6 -- 85
2020-11-11 18:00:00 17.1 0 Calma 9 Este 0 1022.5 -- 74
2020-11-11 17:00:00 19.4 4 Este 14 Este 0 1022.4 -- 66
2020-11-11 16:00:00 19.8 7 Nordeste 13 Nordeste 0 1022.4 -- 65
2020-11-11 15:00:00 20.2 8 Nordeste 15 Este 0 1022.6 -- 60
2020-11-11 14:00:00 20.7 7 Nordeste 19 Este 0 1023.1 -- 58
2020-11-11 13:00:00 20.6 9 Norte 18 Nordeste 0 1023.8 -- 57
2020-11-11 12:00:00 21 8 Norte 18 Noroeste 0 1024.6 -- 57
2020-11-11 11:00:00 19.9 12 Noroeste 21 Norte 0 1024.9 -- 65
2020-11-11 10:00:00 17.4 9 Noroeste 21 Oeste 0 1025.2 -- 76
2020-11-11 09:00:00 13.9 7 Oeste 12 Sudoeste 0 1025.2 -- 94
2020-11-11 08:00:00 11.5 8 Sudoeste 10 Oeste 0 1024.9 -- 95
2020-11-11 07:00:00 11.2 5 Sudoeste 8 Sudoeste 0 1025 -- 94
2020-11-11 06:00:00 11.5 2 Sudoeste 9 Oeste 0 1025.1 -- 93
2020-11-11 05:00:00 11.6 3 Sudoeste 11 Sudoeste 0 1025.3 -- 92
2020-11-11 04:00:00 11.8 5 Sudoeste 13 Sudoeste 0 1025.3 -- 91
2020-11-11 03:00:00 12.7 9 Sudoeste 14 Sudoeste 0 1025.5 -- 89
2020-11-11 02:00:00 12.5 9 Sudoeste 15 Oeste 0 1025.8 -- 89
2020-11-11 01:00:00 12.8 12 Oeste 16 Oeste 0 1025.8 -- 90
2020-11-11 00:00:00 13 8 Oeste 13 Oeste 0 1025.8 -- 92
2020-11-10 23:00:00 12.3 7 Oeste 12 Oeste 0 1026 -- 90
2020-11-10 22:00:00 13.3 9 Sudoeste 12 Oeste 0 1026 -- 91
2020-11-10 21:00:00 13.5 8 Sudoeste 10 Oeste 0 1025.5 -- 90
2020-11-10 20:00:00 13.8 5 Sudoeste 8 Sudoeste 0 1025.3 -- 86
2020-11-10 19:00:00 15.5 5 Noroeste 14 Norte 0 1025.2 -- 77
2020-11-10 18:00:00 17.3 9 Norte 19 Norte 0 1024.6 -- 72
2020-11-10 17:00:00 18.7 12 Norte 20 Norte 0 1024.1 -- 71
2020-11-10 16:00:00 20.8 12 Norte 19 Norte 0 1023.8 -- 61
2020-11-10 15:00:00 21.7 10 Norte 23 Norte 0 1023.7 -- 57
2020-11-10 14:00:00 22 10 Norte 23 Noroeste 0 1023.9 -- 55
2020-11-10 13:00:00 21.4 13 Norte 23 Norte 0 1024.6 -- 57
2020-11-10 12:00:00 20.9 15 Norte 27 Norte 0 1025 -- 53
2020-11-10 11:00:00 20.7 14 Norte 26 Norte 0 1024.9 -- 48
2020-11-10 10:00:00 19.9 12 Norte 23 Norte 0 1024.6 -- 53
2020-11-10 09:00:00 16.3 4 Sudoeste 10 Oeste 0 1024 -- 76
2020-11-10 08:00:00 13.2 4 Sudoeste 13 Oeste 0 1023.1 -- 87
2020-11-10 07:00:00 13.1 4 Sudoeste 12 Oeste 0 1022.7 -- 87
2020-11-10 06:00:00 13.6 4 Oeste 20 Noroeste 0 1022.4 -- 84
2020-11-10 05:00:00 15.5 13 Noroeste 20 Noroeste 0 1022 -- 87
2020-11-10 04:00:00 13.6 8 Sudoeste 14 Sudoeste 0 1021.9 -- 91
2020-11-10 03:00:00 13.6 4 Oeste 11 Sudoeste 0 1022 -- 88
2020-11-10 02:00:00 14.1 5 Oeste 16 Sudoeste 0 1022 -- 86
2020-11-10 01:00:00 12.8 10 Sudoeste 14 Sudoeste 0 1022.1 -- 88
2020-11-10 00:00:00 12.9 7 Sudoeste 13 Sudoeste 0 1022.1 -- 88
2020-11-09 23:00:00 13.4 6 Sudoeste 13 Oeste 0 1022.1 -- 87
2020-11-09 22:00:00 15 5 Oeste 13 Sudoeste 0 1021.9 -- 84
2020-11-09 21:00:00 15.6 5 Oeste 12 Oeste 0 1021.4 -- 82
2020-11-09 20:00:00 16.3 6 Oeste 13 Oeste 0 1021.2 -- 81
2020-11-09 19:00:00 16.7 6 Oeste 13 Sudoeste 0 1020.9 -- 79
2020-11-09 18:00:00 18.3 3 Sur 12 Sudoeste 0 1020.4 -- 71
2020-11-09 17:00:00 21 7 Sudoeste 14 Sudoeste 0 1020.3 -- 59
2020-11-09 16:00:00 22.1 7 Oeste 13 Sudoeste 0 1020.1 -- 55
2020-11-09 15:00:00 20.7 7 Nordeste 12 Este 0 1020.2 -- 59
2020-11-09 14:00:00 21.4 6 Este 14 Este 0 1020.3 -- 55
2020-11-09 13:00:00 22 3 Este 9 Este 0 1020.8 -- 54
2020-11-09 12:00:00 18.7 5 Oeste 8 Oeste 0 1021.8 -- 64
2020-11-09 11:00:00 17.1 6 Sudoeste 10 Oeste 0 1021.9 -- 73
2020-11-09 10:00:00 13.6 5 Oeste 9 Sudoeste 0 1021.6 -- 92
2020-11-09 09:00:00 11.5 7 Sudoeste 11 Oeste 0 1021.2 -- 94
2020-11-09 08:00:00 10.1 8 Oeste 12 Oeste 0 1020.6 -- 94
2020-11-09 07:00:00 10 8 Oeste 12 Sudoeste 0 1020.3 -- 94
2020-11-09 06:00:00 10.1 9 Sudoeste 10 Sudoeste 0.2 1020.2 -- 94
2020-11-09 05:00:00 10.5 6 Oeste 11 Oeste 0 1020.3 -- 94
2020-11-09 04:00:00 10.3 8 Sudoeste 11 Sudoeste 0 1020.1 -- 94
2020-11-09 03:00:00 10.5 6 Sudoeste 9 Oeste 0 1020.3 -- 93
2020-11-09 02:00:00 11 8 Oeste 12 Oeste 0 1020.4 -- 93
2020-11-09 01:00:00 11.4 8 Oeste 12 Oeste 0 1020.8 -- 94
2020-11-09 00:00:00 11 7 Sudoeste 12 Sudoeste 0 1020.9 -- 92
2020-11-08 23:00:00 12.1 9 Sudoeste 10 Oeste 0 1020.9 -- 91
2020-11-08 22:00:00 12.7 6 Oeste 7 Oeste 0 1020.9 -- 90
2020-11-08 21:00:00 12.5 0 Calma 6 Oeste 0 1020.7 -- 87
2020-11-08 20:00:00 13.7 2 Sur 6 Oeste 0 1020.7 -- 81
2020-11-08 19:00:00 15.4 4 Oeste 7 Oeste 0 1020.6 -- 73
2020-11-08 18:00:00 17.5 0 Calma 10 Sur 0 1020.5 -- 66
2020-11-08 17:00:00 19.8 5 Sur 12 Sur 0 1020.6 -- 51
2020-11-08 16:00:00 20.3 5 Este 13 Nordeste 0 1020.8 -- 53
2020-11-08 15:00:00 20.3 10 Este 18 Nordeste 0 1020.8 -- 53
2020-11-08 14:00:00 21.7 8 Este 15 Nordeste 0 1021.3 -- 48
2020-11-08 13:00:00 21.6 6 Este 15 Nordeste 0 1022 -- 52
2020-11-08 12:00:00 21.9 7 Nordeste 17 Este 0 1022.9 -- 55
2020-11-08 11:00:00 21.6 5 Sudoeste 12 Oeste 0 1023.1 -- 44
2020-11-08 10:00:00 18.1 5 Sudoeste 12 Oeste 0 1023 -- 62
2020-11-08 09:00:00 14.1 10 Sudoeste 14 Oeste 0 1022.7 -- 76
2020-11-08 08:00:00 9.7 8 Sudoeste 13 Sudoeste 0 1022.2 -- 89
2020-11-08 07:00:00 9.6 6 Sudoeste 10 Oeste 0 1022.3 -- 88
2020-11-08 06:00:00 10.7 9 Sudoeste 13 Oeste 0 1022.2 -- 85
2020-11-08 05:00:00 12.1 8 Oeste 16 Oeste 0 1022.2 -- 82
2020-11-08 04:00:00 10.8 9 Sudoeste 14 Oeste 0 1022.4 -- 92
2020-11-08 03:00:00 11.4 9 Oeste 12 Sudoeste 0 1022.7 -- 93
2020-11-08 02:00:00 12 5 Sudoeste 12 Oeste 0 1022.6 -- 93
2020-11-08 01:00:00 12.5 7 Oeste 13 Sudoeste 0 1023 -- 93
2020-11-08 00:00:00 13.3 7 Sudoeste 12 Sudoeste 0 1022.8 -- 93
2020-11-07 23:00:00 13.9 3 Sudoeste 10 Oeste 0 1022.7 -- 92
2020-11-07 22:00:00 14.5 6 Sudoeste 12 Oeste 0 1022.2 -- 91
2020-11-07 21:00:00 15.7 5 Oeste 12 Oeste 0 1021.9 -- 90
2020-11-07 20:00:00 16.5 7 Sudoeste 11 Sudoeste 0 1021.5 -- 88
2020-11-07 19:00:00 17.3 3 Sudoeste 6 Oeste 0 1021.1 -- 84
2020-11-07 18:00:00 19 4 Norte 8 Nordeste 0 1020.3 -- 76
2020-11-07 17:00:00 21.8 4 Sudeste 12 Sudeste 0 1019.8 -- 62
2020-11-07 16:00:00 21.4 3 Nordeste 31 Noroeste 0 1019.8 -- 62
2020-11-07 15:00:00 21.1 23 Norte 37 Norte 0 1019.3 -- 65
2020-11-07 14:00:00 22.9 16 Sur 38 Sur 0 1018.3 -- 55
2020-11-07 13:00:00 22.5 19 Sur 35 Sur 0 1018.6 -- 57
2020-11-07 12:00:00 22.1 14 Sur 27 Sur 0 1019.1 -- 58
2020-11-07 11:00:00 20 2 Oeste 20 Norte 0 1019.1 -- 76
2020-11-07 10:00:00 17.8 4 Nordeste 17 Nordeste 0 1018.4 -- 90
2020-11-07 09:00:00 16.6 9 Norte 18 Nordeste 0 1016.4 -- 93
2020-11-07 08:00:00 16.5 3 Sur 34 Oeste 11.2 1016 -- 89
2020-11-07 07:00:00 18.1 7 Sudoeste 25 Sur 0.8 1015.7 -- 89
2020-11-07 06:00:00 18.3 5 Sur 13 Oeste 2.6 1015.6 -- 93
2020-11-07 05:00:00 18.5 4 Noroeste 13 Oeste 0.2 1014.4 -- 93
2020-11-07 04:00:00 19 4 Sur 18 Sudoeste 0 1014.5 -- 92
2020-11-07 03:00:00 19.2 8 Oeste 19 Oeste 0 1014.7 -- 91
2020-11-07 02:00:00 19.5 10 Oeste 25 Noroeste 0 1014.9 -- 90
2020-11-07 01:00:00 19.6 7 Oeste 22 Oeste 0 1015 -- 87
2020-11-07 00:00:00 19.6 4 Sur 28 Noroeste 0 1015.7 -- 88
2020-11-06 23:00:00 19.9 11 Noroeste 22 Noroeste 0 1016.2 -- 88
2020-11-06 22:00:00 20 9 Oeste 23 Noroeste 0 1016.5 -- 87
2020-11-06 21:00:00 20 9 Norte 22 Noroeste 0 1016.8 -- 89
2020-11-06 20:00:00 19.7 7 Noroeste 16 Norte 0 1017.4 -- 89
2020-11-06 19:00:00 20.3 10 Noroeste 17 Noroeste 0 1017.4 -- 86
2020-11-06 18:00:00 20.6 11 Norte 18 Norte 0 1017.3 -- 83
2020-11-06 17:00:00 22 13 Norte 19 Norte 0 1017.3 -- 74
2020-11-06 16:00:00 23 14 Nordeste 21 Nordeste 0 1017.6 -- 70
2020-11-06 15:00:00 23.2 13 Norte 19 Nordeste 0 1017.9 -- 72
2020-11-06 14:00:00 22.5 10 Nordeste 21 Nordeste 0 1018.7 -- 75
2020-11-06 13:00:00 22.3 10 Nordeste 22 Nordeste 0 1019.6 -- 77
2020-11-06 12:00:00 22 13 Nordeste 22 Norte 0 1019.9 -- 78
2020-11-06 11:00:00 21.8 10 Nordeste 19 Nordeste 0 1020.6 1.1 80
2020-11-06 10:00:00 21.9 11 Nordeste 22 Nordeste 0 1020.1 -- 81
2020-11-06 09:00:00 20.4 12 Norte 24 Nordeste 0 1019.8 -- 89
2020-11-06 08:00:00 19.5 9 Norte 20 Norte 0 1019.5 -- 92
2020-11-06 07:00:00 19.6 10 Norte 18 Norte 0 1019.4 -- 93
2020-11-06 06:00:00 18.9 5 Norte 13 Noroeste 0 1019.2 -- 94
2020-11-06 05:00:00 18.2 8 Oeste 12 Sudoeste 0 1019 -- 94
2020-11-06 04:00:00 18.3 9 Sudoeste 16 Noroeste 0 1019.1 -- 93
2020-11-06 03:00:00 18.5 7 Sudoeste 13 Oeste 0 1019.5 -- 93
2020-11-06 02:00:00 18.5 7 Sudoeste 13 Sudoeste 0 1019.3 -- 92
2020-11-06 01:00:00 18.3 5 Sudoeste 13 Sudoeste 0 1019.3 -- 92
2020-11-06 00:00:00 18.1 7 Sudoeste 21 Noroeste 0 1019.4 -- 91
2020-11-05 23:00:00 19.7 10 Norte 17 Norte 0 1019.2 -- 92
2020-11-05 22:00:00 19.2 3 Norte 8 Nordeste 0 1019.2 -- 91
2020-11-05 21:00:00 20 3 Nordeste 13 Este 0 1019.4 -- 91
2020-11-05 20:00:00 20.1 5 Sudeste 29 Sudeste 0 1019.4 -- 89
2020-11-05 19:00:00 20 13 Sudeste 29 Sudeste 0 1018.5 -- 89
2020-11-05 18:00:00 20.1 10 Sudeste 37 Este 0 1017.7 -- 87
2020-11-05 17:00:00 20.5 11 Este 31 Este 0 1017.7 -- 86
2020-11-05 16:00:00 20.6 13 Este 32 Este 0 1018.4 -- 84
2020-11-05 15:00:00 20.8 14 Este 35 Este 0 1018.6 -- 81
2020-11-05 14:00:00 20.4 14 Este 35 Este 0 1019.2 -- 82
2020-11-05 13:00:00 20.8 14 Este 33 Este 0 1020 -- 81
2020-11-05 12:00:00 20 15 Nordeste 30 Este 0 1020.7 -- 85
2020-11-05 11:00:00 19.6 16 Nordeste 36 Este 0 1021 -- 85
2020-11-05 10:00:00 19.4 18 Nordeste 41 Nordeste 0 1021 -- 85
2020-11-05 09:00:00 19.1 21 Nordeste -- -- -- 1020.5 -- 85
2020-11-05 08:00:00 -- -- -- -- -- -- -- -- --
2020-11-05 07:00:00 -- -- -- -- -- -- -- -- --
2020-11-05 06:00:00 -- -- -- -- -- -- -- -- --
2020-11-05 05:00:00 -- -- -- -- -- -- -- -- --
2020-11-05 04:00:00 -- -- -- -- -- -- -- -- --
2020-11-05 03:00:00 -- -- -- -- -- -- -- -- --
2020-11-05 02:00:00 -- -- -- -- -- -- -- -- --
2020-11-05 01:00:00 -- -- -- -- -- -- -- -- --
2020-11-05 00:00:00 -- -- -- -- -- -- -- -- --
2020-11-04 23:00:00 15.6 20 Sudoeste 38 Oeste 10.2 1018.8 -- 91
2020-11-04 22:00:00 15.5 15 Sudoeste 25 Sudoeste 5.8 1018.7 -- 93
2020-11-04 21:00:00 15.6 10 Noroeste 28 Noroeste 1.2 1018 -- 92
2020-11-04 20:00:00 15.5 12 Oeste 21 Oeste 0.8 1017.8 -- 91
2020-11-04 19:00:00 14.9 11 Oeste 27 Oeste 0 1017.3 -- 92
2020-11-04 18:00:00 14.6 13 Oeste 28 Oeste 0 1016.7 -- 92
2020-11-04 17:00:00 14.7 14 Oeste 28 Sudoeste 0.4 1017.2 -- 93
2020-11-04 16:00:00 14.4 9 Sudoeste 27 Oeste 3.4 1017.5 -- 92
2020-11-04 15:00:00 14.6 17 Noroeste 44 Noroeste 5 1017.7 -- 91
2020-11-04 14:00:00 16.5 14 Oeste 36 Oeste 0.4 1017.9 -- 85
2020-11-04 13:00:00 16.1 20 Oeste 44 Sudoeste 0 1018.2 -- 84
2020-11-04 12:00:00 15.7 17 Oeste 38 Sudoeste 0 1019 -- 84
2020-11-04 11:00:00 15.9 14 Oeste 35 Oeste 0 1019.3 0.8 85
2020-11-04 10:00:00 16.3 9 Oeste 19 Oeste 0 1019.1 -- 90
2020-11-04 09:00:00 16.2 14 Oeste 26 Sudoeste 0 1018.8 -- 90
2020-11-04 08:00:00 16.8 8 Noroeste 26 Nordeste 0 1018.5 -- 91
2020-11-04 07:00:00 16.2 7 Oeste 22 Oeste 0 1018.4 -- 91
2020-11-04 06:00:00 16.7 14 Oeste 22 Oeste 1 1018.8 -- 88
2020-11-04 05:00:00 17.2 6 Sudoeste 14 Noroeste 0 1019.4 -- 84
2020-11-04 04:00:00 17.7 6 Nordeste 24 Norte 0 1019.8 -- 82
2020-11-04 03:00:00 18 13 Nordeste 28 Nordeste 0 1020.7 -- 80
2020-11-04 02:00:00 18.3 14 Nordeste 21 Nordeste 0 1021.2 -- 82
2020-11-04 01:00:00 18.6 12 Nordeste 21 Nordeste 0 1021.8 -- 79
2020-11-04 00:00:00 18.7 10 Nordeste 19 Este 0 1022.5 -- 77
2020-11-03 23:00:00 18.8 13 Nordeste 23 Nordeste 0 1022.9 -- 76
2020-11-03 22:00:00 19.2 13 Nordeste 23 Nordeste 0 1023.2 -- 73
2020-11-03 21:00:00 19.4 13 Nordeste 23 Este 0 1023.3 -- 72
2020-11-03 20:00:00 19.1 13 Nordeste 23 Nordeste 0 1023.3 -- 73
2020-11-03 19:00:00 18.3 9 Norte 17 Norte 0 1022.9 -- 77
2020-11-03 18:00:00 18.8 10 Norte 17 Norte 0 1022.6 -- 74
2020-11-03 17:00:00 19.7 12 Norte 20 Nordeste 0 1022.5 -- 71
2020-11-03 16:00:00 20.5 10 Norte 19 Norte 0 1022.3 -- 68
2020-11-03 15:00:00 20.9 11 Norte 25 Noroeste 0 1022.3 -- 66
2020-11-03 14:00:00 22.3 19 Noroeste 32 Noroeste 0 1022.4 -- 64
2020-11-03 13:00:00 20.8 22 Norte 37 Noroeste 0 1022.8 -- 70
2020-11-03 12:00:00 20.5 17 Noroeste 37 Noroeste 0 1023.1 -- 69
2020-11-03 11:00:00 20.8 18 Noroeste 35 Noroeste 0 1023.1 -- 67
2020-11-03 10:00:00 20.2 16 Noroeste 31 Noroeste 0 1022.9 -- 73
2020-11-03 09:00:00 18 4 Sudoeste 10 Oeste 0 1022.6 -- 82
2020-11-03 08:00:00 15 3 Sudoeste 10 Sudoeste 0 1022 -- 91
2020-11-03 07:00:00 16 3 Sudoeste 19 Noroeste 0 1021.5 -- 92
2020-11-03 06:00:00 15.9 5 Oeste 15 Norte 0 1021.5 -- 94
2020-11-03 05:00:00 15.4 3 Oeste 9 Sudoeste 0 1021.2 -- 95
2020-11-03 04:00:00 14.7 5 Sudoeste 8 Sudoeste 0 1021.1 -- 94
2020-11-03 03:00:00 14.2 7 Sudoeste 9 Sudoeste 0 1021.3 -- 95
2020-11-03 02:00:00 13.5 7 Sudoeste 10 Sudoeste 0 1021.2 -- 94
2020-11-03 01:00:00 12.6 6 Sudoeste 9 Sudoeste 0 1021.3 -- 93
2020-11-03 00:00:00 12.9 5 Oeste 7 Sudoeste 0 1021.3 -- 91
2020-11-02 23:00:00 13.8 0 Calma 4 Sudeste 0 1021.3 -- 88
2020-11-02 22:00:00 15.3 2 Sudoeste 13 Sudoeste 0 1021.1 -- 86
2020-11-02 21:00:00 17.3 7 Sudoeste 17 Sudoeste 0 1020.8 -- 87
2020-11-02 20:00:00 17.4 3 Sudoeste 16 Sudoeste 0 1020.3 -- 87
2020-11-02 19:00:00 17.8 6 Sudoeste 26 Oeste 0 1019.9 -- 83
2020-11-02 18:00:00 18.5 11 Sudoeste 27 Sur 0 1019.6 -- 79
2020-11-02 17:00:00 20.3 18 Sur 28 Sur 0 1019.4 -- 69
2020-11-02 16:00:00 21.9 15 Sudoeste 26 Sudoeste 0 1019.7 -- 63
2020-11-02 15:00:00 23.3 11 Sudoeste 24 Sudoeste 0 1019.7 -- 59
2020-11-02 14:00:00 24 12 Sudoeste 24 Sudoeste 0 1020.3 -- 54
2020-11-02 13:00:00 23.9 13 Sudoeste 22 Sudoeste 0 1020.8 -- 53
2020-11-02 12:00:00 24.5 8 Sudoeste 14 Sudoeste 0 1021.4 -- 51
2020-11-02 11:00:00 22.8 3 Sur 12 Sudoeste 0 1021.9 -- 59
2020-11-02 10:00:00 18.8 4 Sudoeste 12 Oeste 0 1021.9 -- 85
2020-11-02 09:00:00 14.6 0 Calma 9 Sudoeste 0 1021.8 -- 96
2020-11-02 08:00:00 10.2 4 Sudoeste 11 Sudoeste 0 1021.3 -- 95
2020-11-02 07:00:00 10.2 0 Calma 9 Sudoeste 0 1021.1 -- 95
2020-11-02 06:00:00 10.7 0 Calma 9 Sudoeste 0 1021.2 -- 95
2020-11-02 05:00:00 11.1 6 Sudoeste 9 Sudoeste 0.2 1021 -- 95
2020-11-02 04:00:00 10.7 5 Sudoeste 8 Sudoeste 0 1021.1 -- 94
2020-11-02 03:00:00 11.4 6 Sudoeste 11 Sudoeste 0 1021.5 -- 93
2020-11-02 02:00:00 12.1 3 Oeste 8 Sudoeste 0 1021.6 -- 91
2020-11-02 01:00:00 13.9 0 Calma 6 Sudoeste 0 1021.8 -- 91
2020-11-02 00:00:00 15.6 3 Oeste 9 Sudoeste 0 1021.9 -- 91
2020-11-01 23:00:00 16 3 Oeste 13 Sur 0 1022.1 -- 90
2020-11-01 22:00:00 17.2 9 Sudoeste 25 Sur 0 1021.7 -- 88
2020-11-01 21:00:00 17.5 11 Sudoeste 21 Sur 0 1021.4 -- 89
2020-11-01 20:00:00 17.6 10 Sudoeste 21 Sudoeste 0 1021.2 -- 87
2020-11-01 19:00:00 17.8 11 Sudoeste 20 Sudoeste 0 1021.2 -- 85
2020-11-01 18:00:00 18.9 8 Sudoeste 25 Sur 0 1021 -- 79
2020-11-01 17:00:00 21.6 9 Sudoeste 21 Sudoeste 0 1021 -- 66
2020-11-01 16:00:00 23.9 9 Sudoeste 22 Sudoeste 0 1021.3 -- 55
2020-11-01 15:00:00 24.1 12 Sudoeste 21 Sudoeste 0 1021.5 -- 54
2020-11-01 14:00:00 25.3 10 Sur 18 Sur 0 1021.8 -- 51
2020-11-01 13:00:00 23.3 8 Este 18 Nordeste 0 1022.7 -- 58
2020-11-01 12:00:00 23.1 9 Nordeste 17 Este 0 1023.3 -- 59
2020-11-01 11:00:00 23.4 4 Sudoeste 14 Sudoeste 0 1023.4 -- 57
2020-11-01 10:00:00 20.2 9 Sudoeste 18 Sur 0 1023.4 -- 76
2020-11-01 09:00:00 14.7 4 Sudoeste 12 Sudoeste 0 1023 -- 90
2020-11-01 08:00:00 10.8 9 Sudoeste 12 Sudoeste 0 1022.6 -- 93
2020-11-01 07:00:00 10.2 7 Oeste 12 Sudoeste 0 1022.4 -- 93
2020-11-01 06:00:00 10.7 8 Sudoeste 12 Sudoeste 0 1022.3 -- 93
2020-11-01 05:00:00 11.2 11 Sudoeste 13 Sudoeste 0 1022.3 -- 93
2020-11-01 04:00:00 11.2 8 Sudoeste 12 Sudoeste 0 1022.5 -- 94
2020-11-01 03:00:00 11.3 8 Sudoeste 13 Sudoeste 0 1022.6 -- 93
2020-11-01 02:00:00 11.8 4 Oeste 9 Sudoeste 0 1022.7 -- 92
2020-11-01 01:00:00 12.9 7 Oeste 11 Oeste 0 1022.7 -- 92
2020-11-01 00:00:00 13 8 Sudoeste 12 Sudoeste 0 1023.2 -- 91
2020-10-31 23:00:00 13.5 5 Oeste 9 Sudoeste 0 1023 -- 89
2020-10-31 22:00:00 14.8 0 Calma 7 Sudoeste 0 1023.2 -- 84
2020-10-31 21:00:00 17.3 8 Sudoeste 16 Sudoeste 0 1022.7 -- 83
2020-10-31 20:00:00 17.6 6 Sudoeste 15 Sudoeste 0 1022 -- 82
2020-10-31 19:00:00 18.2 8 Sudoeste 15 Sudoeste 0 1021.8 -- 79
2020-10-31 18:00:00 19.3 10 Sudoeste 24 Sudoeste 0 1021.7 -- 72
2020-10-31 17:00:00 21.8 11 Sudoeste 26 Sur 0 1021.7 -- 61
2020-10-31 16:00:00 23.2 14 Sudoeste 28 Sur 0 1021.7 -- 56
2020-10-31 15:00:00 24.6 13 Sur 25 Sur 0 1021.7 -- 50
2020-10-31 14:00:00 25 12 Sur 23 Sur 0 1022.3 -- 49
2020-10-31 13:00:00 24.3 13 Sudoeste 23 Sudoeste 0 1022.9 -- 42
2020-10-31 12:00:00 23.8 12 Sudoeste 20 Sudoeste 0 1023.7 -- 47
2020-10-31 11:00:00 23.1 6 Sur 16 Sudoeste 0 1024.1 -- 53
2020-10-31 10:00:00 19.7 4 Oeste 9 Sudoeste 0 1024.4 -- 75
2020-10-31 09:00:00 13.8 8 Sudoeste 12 Oeste 0 1024.2 -- 81
2020-10-31 08:00:00 10.3 11 Sudoeste 13 Sudoeste 0 1024 -- 91
2020-10-31 07:00:00 10.1 9 Sudoeste 12 Sudoeste 0 1023.5 -- 90
2020-10-31 06:00:00 10.1 9 Sudoeste 12 Sudoeste 0 1023.5 -- 90
2020-10-31 05:00:00 10.5 9 Sudoeste 12 Oeste 0 1023.5 -- 89
2020-10-31 04:00:00 10.5 10 Sudoeste 13 Sudoeste 0 1023.5 -- 88
2020-10-31 03:00:00 11.1 10 Oeste 13 Oeste 0 1023.8 -- 88
2020-10-31 02:00:00 10.7 8 Sudoeste 10 Sudoeste 0 1024 -- 88
2020-10-31 01:00:00 11.4 8 Sudoeste 10 Sudoeste 0 1024.1 -- 87
2020-10-31 00:00:00 12.2 4 Sudoeste 7 Sudoeste 0 1024.2 -- 84
2020-10-30 23:00:00 14.1 3 Noroeste 5 Sur 0 1024.2 -- 83
2020-10-30 22:00:00 15.6 3 Sudoeste 10 Sudoeste 0 1024.2 -- 81
2020-10-30 21:00:00 16.6 4 Sudoeste 9 Oeste 0 1023.7 -- 79
2020-10-30 20:00:00 17.7 5 Oeste 13 Sudoeste 0 1023.7 -- 80
2020-10-30 19:00:00 18.5 7 Sudoeste 15 Sur 0 1023.5 -- 75
2020-10-30 18:00:00 19.9 6 Sudoeste 19 Sur 0 1023.3 -- 63
2020-10-30 17:00:00 23.1 9 Sudoeste 18 Sudoeste 0 1023.2 -- 49
2020-10-30 16:00:00 25.6 8 Sur 18 Sur 0 1023.1 -- 38
2020-10-30 15:00:00 26 6 Sudeste 16 Este 0 1023.3 -- 40
2020-10-30 14:00:00 26.3 7 Sudeste 18 Sur 0 1023.7 -- 40
2020-10-30 13:00:00 26 8 Sudeste 18 Sudeste 0 1024.2 -- 40
2020-10-30 12:00:00 24.4 5 Nordeste 14 Nordeste 0 1024.9 -- 53
2020-10-30 11:00:00 22.4 6 Este 12 Nordeste 0 1025.3 -- 65
2020-10-30 10:00:00 19.7 2 Sur 9 Sudoeste 0 1025.6 -- 79
2020-10-30 09:00:00 14.5 6 Sudoeste 13 Sudoeste 0 1025.5 -- 91
2020-10-30 08:00:00 10.9 9 Sudoeste 12 Sudoeste 0 1025 -- 95
2020-10-30 07:00:00 10.5 8 Sudoeste 10 Sudoeste 0 1024.7 -- 94
2020-10-30 06:00:00 10.4 8 Sudoeste 11 Sudoeste 0 1024.8 -- 94
2020-10-30 05:00:00 11.6 9 Sudoeste 13 Oeste 0 1024.8 -- 94
2020-10-30 04:00:00 11.3 8 Sudoeste 14 Sudoeste 0 1024.8 -- 94
2020-10-30 03:00:00 11.2 8 Sudoeste 12 Sudoeste 0 1025 -- 93
2020-10-30 02:00:00 11.7 7 Sudoeste 9 Sudoeste 0 1025.2 -- 92
2020-10-30 01:00:00 12.6 5 Sudoeste 8 Sudoeste 0 1025.2 -- 90
2020-10-30 00:00:00 13.8 4 Sudoeste 10 Sudoeste 0 1025.2 -- 89
2020-10-29 23:00:00 15.6 6 Sudoeste 14 Oeste 0 1025.3 -- 87
2020-10-29 22:00:00 17.1 8 Sudoeste 14 Oeste 0 1025.2 -- 87
2020-10-29 21:00:00 17 6 Sudoeste 10 Sudoeste 0 1024.9 -- 87
2020-10-29 20:00:00 17.5 5 Sudoeste 12 Sudoeste 0 1024.5 -- 86
2020-10-29 19:00:00 18.2 5 Oeste 10 Sudoeste 0 1024.4 -- 82
2020-10-29 18:00:00 19.6 6 Sudoeste 14 Sur 0 1024.1 -- 72
2020-10-29 17:00:00 22.8 9 Sur 15 Nordeste 0 1024 -- 58
2020-10-29 16:00:00 22.3 9 Este 19 Nordeste 0 1024 -- 65
2020-10-29 15:00:00 22.4 9 Este 19 Nordeste 0 1024 -- 62
2020-10-29 14:00:00 22.6 10 Este 18 Este 0 1024.1 -- 58
2020-10-29 13:00:00 23.7 9 Este 23 Nordeste 0 1025 -- 50
2020-10-29 12:00:00 23.2 13 Norte 21 Norte 0 1026.2 -- 52
2020-10-29 11:00:00 22.6 11 Norte 23 Noroeste 0 1026.2 -- 54
2020-10-29 10:00:00 21.1 5 Este 11 Oeste 0 1025.7 -- 56
2020-10-29 09:00:00 17 5 Sudoeste 10 Oeste 0 1025.1 -- 80
2020-10-29 08:00:00 13 5 Sudoeste 12 Oeste 0 1024.3 -- 91
2020-10-29 07:00:00 12.3 5 Oeste 9 Oeste 0 1023.8 -- 91
2020-10-29 06:00:00 12 2 Oeste 9 Sudoeste 0 1023.7 -- 87
2020-10-29 05:00:00 13.3 6 Sudoeste 14 Oeste 0 1023.2 -- 85
2020-10-29 04:00:00 13.3 5 Sudoeste 13 Oeste 0 1023.2 -- 87
2020-10-29 03:00:00 11.7 4 Sudoeste 11 Oeste 0 1022.6 -- 87
2020-10-29 02:00:00 11.2 8 Oeste 11 Sudoeste 0 1022.1 -- 83
2020-10-29 01:00:00 13 6 Oeste 12 Sudoeste 0 1022 -- 79
2020-10-29 00:00:00 12.5 5 Oeste 11 Sudoeste 0 1022.4 -- 81
2020-10-28 23:00:00 13.1 5 Oeste 10 Oeste 0 1022.1 -- 77
2020-10-28 22:00:00 15 5 Sudoeste 10 Oeste 0 1021.8 -- 70
2020-10-28 21:00:00 16.1 4 Sudoeste 9 Sudoeste 0 1021.3 -- 70
2020-10-28 20:00:00 17.3 4 Sudoeste 9 Oeste 0 1020.7 -- 68
2020-10-28 19:00:00 17.9 7 Sudoeste 12 Sudoeste 0 1020.2 -- 68
2020-10-28 18:00:00 19.7 5 Sudoeste 14 Sur 0 1019.7 -- 53
2020-10-28 17:00:00 22.5 10 Sur 19 Sur 0 1019.5 -- 42
2020-10-28 16:00:00 23.5 9 Sur 21 Sur 0 1019.5 -- 38
2020-10-28 15:00:00 22.3 9 Este 17 Nordeste 0 1019.3 -- 42
2020-10-28 14:00:00 22.2 10 Nordeste 19 Este 0 1019.6 -- 40
2020-10-28 13:00:00 24.2 7 Este 15 Norte 0 1019.8 -- 34
2020-10-28 12:00:00 23.8 11 Norte 22 Nordeste 0 1020.2 -- 32
2020-10-28 11:00:00 23.6 5 Oeste 12 Noroeste 0 1020.1 -- 28
2020-10-28 10:00:00 21.3 7 Oeste 13 Oeste 0 1020 -- 34
2020-10-28 09:00:00 14.9 8 Sudoeste 12 Oeste 0 1019.7 -- 53
2020-10-28 08:00:00 11.3 7 Oeste 14 Oeste 0 1018.6 -- 61
2020-10-28 07:00:00 9.6 9 Oeste 14 Oeste 0 1018.2 -- 64
2020-10-28 06:00:00 10.3 9 Sudoeste 13 Oeste 0 1017.7 -- 60
2020-10-28 05:00:00 10.5 8 Oeste 15 Sudoeste 0 1017.2 -- 60
2020-10-28 04:00:00 11.3 12 Sudoeste 14 Sudoeste 0 1016.9 -- 56
2020-10-28 03:00:00 10.5 10 Sudoeste 13 Oeste 0 1017 -- 59
2020-10-28 02:00:00 11.3 8 Oeste 13 Oeste 0 1017 -- 56
2020-10-28 01:00:00 9.7 7 Sudoeste 12 Sudoeste 0 1017.4 -- 65
2020-10-28 00:00:00 10 4 Oeste 9 Oeste 0 1017.4 -- 67
2020-10-27 23:00:00 10.4 2 Noroeste 10 Sudoeste 0 1017.6 -- 67
2020-10-27 22:00:00 11.9 4 Sudoeste 8 Noroeste 0 1017.5 -- 67
2020-10-27 21:00:00 13.1 3 Oeste 14 Oeste 0 1017 -- 62
2020-10-27 20:00:00 15.2 6 Oeste 10 Oeste 0 1016.7 -- 57
2020-10-27 19:00:00 17 5 Sur 10 Sudoeste 0 1016.2 -- 54
2020-10-27 18:00:00 18.8 4 Oeste 17 Sur 0 1015.7 -- 43
2020-10-27 17:00:00 21.5 9 Sur 21 Sur 0 1015.7 -- 34
2020-10-27 16:00:00 22.3 10 Sur 26 Sur 0 1015.8 -- 26
2020-10-27 15:00:00 23 12 Sur 26 Este 0 1016.1 -- 24
2020-10-27 14:00:00 23.8 5 Este 21 Sudoeste 0 1016.7 -- 24
2020-10-27 13:00:00 22.9 12 Noroeste 33 Noroeste 0 1017.7 -- 22
2020-10-27 12:00:00 21.7 16 Noroeste 40 Oeste 0 1018.4 -- 23
2020-10-27 11:00:00 20.4 22 Oeste 40 Oeste 0 1018.4 -- 25
2020-10-27 10:00:00 19.4 15 Oeste 32 Oeste 0 1018.5 -- 27
2020-10-27 09:00:00 16.5 12 Sudoeste 21 Sudoeste 0 1018.1 -- 34
2020-10-27 08:00:00 13.9 13 Sudoeste 30 Noroeste 0 1017.8 -- 38
2020-10-27 07:00:00 14.6 14 Oeste 31 Noroeste 0 1017.1 -- 36
2020-10-27 06:00:00 14.3 15 Sudoeste 27 Sudoeste 0 1017.2 -- 36
2020-10-27 05:00:00 14.8 12 Oeste 30 Oeste 0 1017.1 -- 33
2020-10-27 04:00:00 15.2 19 Oeste 33 Oeste 0 1017.1 -- 33
2020-10-27 03:00:00 15.7 18 Oeste 38 Noroeste 0 1017.2 -- 32
2020-10-27 02:00:00 14.5 10 Sudoeste 37 Oeste 0 1017.8 -- 36
2020-10-27 01:00:00 15.7 15 Oeste 38 Noroeste 0 1018.1 -- 33
2020-10-27 00:00:00 16.1 26 Noroeste 45 Noroeste 0 1018.2 -- 32
2020-10-26 23:00:00 16.4 19 Noroeste 42 Noroeste 0 1018 -- 32
2020-10-26 22:00:00 16.3 16 Oeste 32 Oeste 0 1017.4 -- 32
2020-10-26 21:00:00 16.3 13 Oeste 26 Oeste 0 1017 -- 33
2020-10-26 20:00:00 16.1 9 Oeste 19 Oeste 0 1016.4 -- 34
2020-10-26 19:00:00 17.3 9 Oeste 23 Oeste 0 1016 -- 31
2020-10-26 18:00:00 18.8 12 Oeste 38 Oeste 0 1014.7 -- 28
2020-10-26 17:00:00 21.8 14 Oeste 32 Noroeste 0 1014.1 -- 22
2020-10-26 16:00:00 22.3 17 Noroeste 34 Noroeste 0 1013.6 -- 22
2020-10-26 15:00:00 22.2 21 Oeste 60 Oeste 0 1013.3 -- 23
2020-10-26 14:00:00 22.6 15 Noroeste 48 Noroeste 0 1013.3 -- 23
2020-10-26 13:00:00 21.4 19 Oeste 46 Oeste 0 1013.4 -- 25
2020-10-26 12:00:00 21.3 18 Noroeste 54 Oeste 0 1013.5 -- 25
2020-10-26 11:00:00 18.9 33 Oeste 64 Oeste 0 1012.9 -- 30
2020-10-26 10:00:00 18.2 40 Noroeste 69 Noroeste 0 1012.2 -- 32
2020-10-26 09:00:00 16.8 22 Oeste 52 Oeste 0 1011.8 -- 37
2020-10-26 08:00:00 16.7 23 Oeste 48 Noroeste 0 1011 -- 44
2020-10-26 07:00:00 17.6 19 Noroeste 46 Noroeste 0 1011.1 -- 43
2020-10-26 06:00:00 18.5 22 Noroeste 39 Noroeste 0 1010.3 -- 42
2020-10-26 05:00:00 18.7 14 Noroeste 40 Noroeste 0 1010.3 -- 45
2020-10-26 04:00:00 19.3 21 Noroeste 40 Noroeste 0 1010.1 -- 51
2020-10-26 03:00:00 15.4 5 Oeste 9 Norte 0 1009.5 -- 68
2020-10-26 02:00:00 14.6 4 Sudoeste 15 Sudoeste 0 1009.2 -- 69
2020-10-26 01:00:00 14.6 7 Oeste 12 Oeste 0 1009.7 -- 73
2020-10-26 00:00:00 15.5 8 Oeste 12 Noroeste 0 1010.5 -- 77